Regional Weather Roundup
Issued by NWS Goodland, KS

Home | Current Version | Previous Version | Text Only | Print | Product List | Glossary Off
Versions: 1 2 3 4 5 6 7 8 9 10 11 12 13 14 15 16 17 18 19 20 21 22 23 24 25 26 27 28 29 30 31 32 33 34 35 36 37 38 39 40 41 42 43 44 45 46 47 48 49 50

000
ASUS43 KGLD 190159
RWRGLD

GOODLAND FORECAST AREA HOURLY WEATHER ROUNDUP
NATIONAL WEATHER SERVICE GOODLAND KS
800 PM MDT MON SEP 18 2017

...OFFICIAL OBSERVATIONS...

CITY           SKY/WX    TMP DP  RH WIND       PRES   REMARKS
GOODLAND KS    CLEAR     61  49  64 SE6       29.90R
HILL CITY KS   CLEAR     74  58  57 NE9       29.86R
IMPERIAL NEB   CLEAR     63  45  51 SE9       29.87S
MCCOOK NEB     CLEAR     69  57  65 E7        29.87R
AKRON CO       CLEAR     68  33  27 SE12      29.91S
BURLINGTON CO  CLEAR     65  46  50 SE9       29.92S
LIMON CO         N/A    N/A N/A N/A MISG      29.95S
$$

...UNOFFICIAL OBSERVATIONS...

CITY           SKY/WX    TMP DP  RH WIND       PRES   REMARKS
LENORA KS        N/A     73  32  22 MISG        N/A
NORTON KS      CLEAR     68  54  60 E3        29.87R
SHARON SPRINGS   N/A     69  51  53 E7          N/A
TRENTON NEB      N/A     69  32  25 SE5         N/A
KIT CARSON CO    N/A     66  38  36 CALM        N/A
YUMA CO        FAIR      61  34  36 SE7       29.89S
$$




USA.gov is the U.S. government's official web portal to all federal, state and local government web resources and services.